CZ-6A DEB, 54515

Orbit data source: Space-Track

CZ-6A DEB, 54515 is space debris in SSO originally from a launch on Fri, 11 Nov 2022 UTC launched from the Taiyaun Space Center, China (TSC). Debris objects in space refer to the collection of defunct objects orbiting the Earth. Examples of debris include non-operational satellites, rocket bodies, and fragments generated from explosions, collisions, or faulty payload assembly.

Loading next visibility...
Identifier
54515, 2022-151JT
Orbit
SSO
Country
Flag of CNCN / PRC
Related business
Manufacturer
SAST
Mission
Spacecraft
Bus & Motor
Unknown
Mass
Unknown
Launch date (UTC)
2022-11-11 (3 years ago)
Launch vehicle
Unknown
Launch site
Taiyaun Space Center, China (TSC)
Object type
Payload
Rocket body
Debris
Shape & HBR
Unknown shape, 0.2 m
Radar Cross Section
Small (<0.1 m²)

Expand to show TLE details & history
Last TLE update: 9 hours ago

TLE from 9 hours ago
0 CZ-6A DEB
1 54515U 22151JT  25354.02186728  .00000326  00000-0  11423-3 0  9999
2 54515  98.5760  14.0971 0118537 174.0962 186.1654 14.37780449162572
Epoch: 2025-12-20T00:31Z
TLE epoch observation values (Epoch: 2025-12-20T00:31:29.332Z)
Latitude
-0.00008°
Longitude
-82.62975°
Altitude
853.006 km
Speed
7.382 km/s
True Right ascension
00h 56m 23s
True Declination
0° 00' 00"
Sunlit
Object was in daylight at epoch
Visualization orbit readout
Latitude
Unknown
Longitude
Unknown
Altitude
Unknown
Speed
Unknown
Apparent Right ascension
Unknown
Apparent Declination
Unknown
Sunlit
N/A
Visualization observer readout
Local Sidereal Time
08:37:46
Azimuth
Unknown
Elevation
Unknown
Doppler factor
Unknown
Orbital elements
Apogee altitude
847.618 km
Perigee altitude
678.321 km
Semi-major axis
7,141.106 km
Eccentricity
0.01185
Inclination
98.576°
RAAN
14.0971°
Arg. of periapsis
174.0962°
True anomaly
186.02164°
Mean anomaly
186.1654°
Eccentric anomaly
186.09331°
Mean motion
3.59662 °/min
Orbital period
100.09 mins
BSTAR
0.00011423
Loading maneuver chart data...
Computing Atmospheric mass density...
Loading historical data...
Loading historical data...
Loading historical data...
Loading historical data...
Loading historical data...
Loading historical data...
Loading historical data...

Documentation

Showing up to 5 results
|